North Platte, NE

4:34 AM CDT on September 23, 2017 (GMT -0500)
North Platte Regional-Bird

Weather History for KLBF - January, 2013

Change the Weather History Date:

Monday, January 28, 2013

  Actual Average Record
Temperature  
Mean Temperature 33 °F 26 °F  
Max Temperature 42 °F 40 °F 66 °F (1888)
Min Temperature 24 °F 12 °F -15 °F (1918)
Degree Days  
Heating Degree Days 32 39  
Month to date heating degree days 1116 1122  
Since 1 July heating degree days 3831 3902  
Cooling Degree Days 0 0  
Month to date cooling degree days 0 0  
Year to date cooling degree days 0 0  
Moisture  
Dew Point 31 °F    
Average Humidity 89    
Maximum Humidity 100    
Minimum Humidity 78    
Precipitation  
Precipitation 0.01 in 0.02 in 0.34 in (1989)
Month to date precipitation 0.22 0.31  
Year to date precipitation 0.22 0.31  
Snow  
Snow 0.00 in 0.10 in 5.20 in (1989)
Month to date snowfall 0.7 4.3  
Since 1 July snowfall 8.6 15.1  
Snow Depth 0.00 in    
Sea Level Pressure  
Sea Level Pressure 29.71 in    
Wind  
Wind Speed 7 mph (NE)    
Max Wind Speed 22 mph    
Max Gust Speed 29 mph    
Visibility 3 miles    
Events Fog , Rain    
T = Trace of Precipitation, MM = Missing Value Source: NWS Daily Summary

Daily Weather History Graph

Daily Weather History Graph

Search for Another Location

Airport or City:

Trip Planner

Search our weather history database for the weather conditions in past years. The results will help you decide how hot, cold, wet, or windy it might be!

Date:

Astronomy

Jan. 28, 2013 Rise Set
Actual Time 7:57 AM CST 5:54 PM CST
Civil Twilight 7:27 AM CST 6:24 PM CST
Nautical Twilight 6:54 AM CST 6:57 PM CST
Astronomical Twilight 6:21 AM CST 7:30 PM CST
Moon 7:53 PM CST (1/28) 8:22 AM CST (1/28)
Length of Visible Light 10h 56m
Length of Day
9h 57m
Full, 98% of the Moon is Illuminated
Jan 28
Full
Feb 3
Last Quarter
Feb 10
New
Feb 17
First Quarter
Feb 25
Full

Hourly Weather History & Observations

Time (CST) Temp. Windchill Dew Point Humidity Pressure Visibility Wind Dir Wind Speed Gust Speed Precip Events Conditions
12:07 AM 28.4 °F - 26.6 °F 93% 29.77 in 1.0 mi Calm Calm - N/A   Clear
12:48 AM 30.2 °F - 28.4 °F 93% 29.77 in 0.5 mi Calm Calm - N/A Fog Light Freezing Fog
12:49 AM 30.9 °F - 28.9 °F 92% 29.81 in 0.5 mi Calm Calm - N/A Fog Light Freezing Fog
12:56 AM 28.4 °F - 26.6 °F 93% 29.77 in 0.2 mi Calm Calm - N/A Fog Light Freezing Fog
1:04 AM 28.4 °F - 28.4 °F 100% 29.77 in 0.5 mi Calm Calm - N/A Fog Light Freezing Fog
1:12 AM 28.4 °F - 26.6 °F 93% 29.77 in 1.8 mi Calm Calm - N/A   Mostly Cloudy
1:16 AM 28.4 °F - 26.6 °F 93% 29.77 in 0.8 mi Calm Calm - N/A   Mist
1:19 AM 28.4 °F - 26.6 °F 93% 29.77 in 0.2 mi Calm Calm - N/A Fog Light Freezing Fog
1:53 AM 27.0 °F - 25.0 °F 92% 29.81 in 0.2 mi Calm Calm - N/A Fog Light Freezing Fog
2:53 AM 26.1 °F - 24.1 °F 92% 29.80 in 0.2 mi Calm Calm - N/A Fog Light Freezing Fog
3:53 AM 24.1 °F - 21.9 °F 91% 29.79 in 0.2 mi Calm Calm - N/A Fog Light Freezing Fog
4:53 AM 27.0 °F 23.0 °F 24.1 °F 89% 29.78 in 0.2 mi ESE 3.5 mph - N/A Fog Light Freezing Fog
5:15 AM 28.4 °F 23.3 °F 24.8 °F 86% 29.74 in 0.5 mi ESE 4.6 mph - N/A Fog Light Freezing Fog
5:36 AM 26.6 °F - 24.8 °F 93% 29.73 in 0.2 mi Calm Calm - N/A Fog Light Freezing Fog
5:53 AM 27.0 °F - 24.1 °F 89% 29.78 in 0.2 mi Calm Calm - N/A Fog Light Freezing Fog
6:53 AM 28.9 °F - 25.0 °F 85% 29.78 in 0.5 mi Calm Calm - N/A Fog Light Freezing Fog
7:32 AM 28.4 °F - 24.8 °F 86% 29.73 in 0.2 mi Calm Calm - N/A Fog Light Freezing Fog
7:53 AM 30.0 °F - 25.0 °F 82% 29.78 in 0.2 mi Calm Calm - N/A   Haze
8:53 AM 32.0 °F 26.4 °F 28.9 °F 88% 29.77 in 0.2 mi East 5.8 mph - N/A Fog Fog
9:11 AM 32.0 °F 27.5 °F 30.2 °F 93% 29.71 in 0.2 mi East 4.6 mph - N/A Fog Fog
9:53 AM 34.0 °F 28.8 °F 30.9 °F 89% 29.77 in 0.2 mi East 5.8 mph - N/A Fog Fog
10:10 AM 33.8 °F 27.7 °F 32.0 °F 93% 29.70 in 0.2 mi East 6.9 mph - N/A Fog Fog
10:53 AM 35.1 °F 31.0 °F 34.0 °F 96% 29.76 in 0.2 mi ESE 4.6 mph - N/A Fog Fog
11:19 AM 37.4 °F - 35.6 °F 93% 29.70 in 0.8 mi Calm Calm - N/A   Overcast
11:22 AM 37.4 °F 34.9 °F 35.6 °F 93% 29.70 in 1.5 mi ESE 3.5 mph - N/A   Overcast
11:30 AM 37.4 °F - 35.6 °F 93% 29.70 in 2.0 mi Calm Calm - N/A   Overcast
11:36 AM 37.4 °F 34.9 °F 35.6 °F 93% 29.69 in 1.2 mi SE 3.5 mph - N/A   Overcast
11:53 AM 37.9 °F 34.4 °F 37.0 °F 97% 29.73 in 0.8 mi East 4.6 mph - N/A   Overcast
12:08 PM 39.2 °F 35.9 °F 37.4 °F 93% 29.66 in 1.0 mi East 4.6 mph - N/A   Overcast
12:16 PM 39.2 °F 35.9 °F 39.2 °F 100% 29.66 in 0.5 mi East 4.6 mph - N/A Fog Fog
12:44 PM 41.0 °F 37.1 °F 39.2 °F 93% 29.65 in 1.0 mi East 5.8 mph - N/A   Overcast
12:53 PM 41.0 °F 38.0 °F 39.9 °F 96% 29.69 in 1.2 mi East 4.6 mph - N/A   Overcast
1:01 PM 41.0 °F 38.0 °F 39.2 °F 93% 29.63 in 1.5 mi ENE 4.6 mph - N/A   Overcast
1:14 PM 41.0 °F 37.1 °F 39.2 °F 93% 29.62 in 2.5 mi East 5.8 mph - N/A   Overcast
1:21 PM 41.0 °F 37.1 °F 39.2 °F 93% 29.62 in 3.0 mi East 5.8 mph - N/A   Overcast
1:53 PM 41.0 °F 36.4 °F 39.0 °F 93% 29.65 in 4.0 mi East 6.9 mph - N/A   Overcast
2:45 PM 42.8 °F 38.6 °F 39.2 °F 87% 29.59 in 2.0 mi East 6.9 mph - N/A   Overcast
2:53 PM 41.0 °F 35.8 °F 39.0 °F 93% 29.64 in 2.0 mi East 8.1 mph - N/A   Overcast
3:15 PM 42.8 °F 38.6 °F 39.2 °F 87% 29.59 in 3.0 mi NE 6.9 mph - N/A   Overcast
3:19 PM 39.2 °F 32.5 °F 37.4 °F 93% 29.59 in 1.5 mi NE 10.4 mph - N/A   Overcast
3:24 PM 39.2 °F 31.6 °F 37.4 °F 93% 29.59 in 0.8 mi NNE 12.7 mph - N/A   Overcast
3:53 PM 37.4 °F 29.8 °F 35.6 °F 93% 29.60 in 0.8 mi NNE 11.5 mph - N/A   Overcast
4:53 PM 37.0 °F 28.9 °F 35.1 °F 93% 29.68 in 1.0 mi NNE 12.7 mph - 0.00 in Rain Light Rain
5:23 PM 35.6 °F 26.2 °F 33.8 °F 93% 29.62 in 1.5 mi North 15.0 mph - 0.01 in Rain Light Rain
5:53 PM 35.1 °F 25.2 °F 33.1 °F 92% 29.69 in 1.8 mi North 16.1 mph - 0.01 in Rain Light Rain
6:10 PM 35.6 °F 24.5 °F 32.0 °F 87% 29.62 in 3.0 mi NNE 20.7 mph - 0.00 in Rain Light Rain
6:21 PM 35.6 °F 25.2 °F 32.0 °F 87% 29.61 in 4.0 mi NNE 18.4 mph 25.3 mph 0.00 in Rain Light Rain
6:53 PM 34.0 °F 22.1 °F 30.9 °F 89% 29.66 in 8.0 mi NNE 21.9 mph 28.8 mph 0.00 in   Overcast
7:00 PM 33.8 °F 22.8 °F 30.2 °F 87% 29.60 in 8.0 mi NNE 18.4 mph 28.8 mph N/A   Overcast
7:35 PM 33.8 °F 22.8 °F 30.2 °F 87% 29.64 in 10.0 mi NNE 18.4 mph 25.3 mph N/A   Overcast
7:53 PM 33.1 °F 22.2 °F 30.0 °F 89% 29.70 in 10.0 mi North 17.3 mph 24.2 mph N/A   Overcast
8:53 PM 32.0 °F 22.5 °F 28.9 °F 88% 29.74 in 10.0 mi NNW 12.7 mph - N/A   Overcast
9:36 PM 32.0 °F 23.6 °F 28.4 °F 87% 29.68 in 10.0 mi NNW 10.4 mph - N/A   Overcast
9:53 PM 32.0 °F 24.8 °F 28.0 °F 85% 29.77 in 10.0 mi NW 8.1 mph - N/A   Overcast
10:51 PM 32.0 °F 23.6 °F 26.6 °F 80% 29.70 in 10.0 mi NNW 10.4 mph - N/A   Overcast
10:53 PM 32.0 °F 23.6 °F 27.0 °F 82% 29.76 in 10.0 mi NNW 10.4 mph - N/A   Overcast
11:53 PM 30.9 °F 22.8 °F 27.0 °F 85% 29.75 in 10.0 mi NW 9.2 mph - N/A   Overcast